Location: Kiikoisj�rvi
(61.4333°N, 22.6000°E)
Time: 08:55:14
(UTC+00:00)

Daily predictions for brighter satellites

Satellite Brightness Start Highest point End
(mag) Time Altitude Azimuth Time Altitude Azimuth Time Altitude Azimuth
Cosmos 1943 Rocket 2.2 21:36:50 10° SW 21:42:26 86° SE 21:48:07 10° NE
Cosmos 1992 Rocket 4.2 21:37:31 10° SSW 21:42:36 56° ESE 21:47:44 10° NE
Cosmos 2297 4.3 21:37:05 10° WSW 21:42:47 65° NW 21:48:32 10° NE
NOSS 2-2 (E) 3.5 21:39:20 10° SW 21:43:12 71° SSE 21:48:09 10° ENE
NOSS 3-4 (A) 4.1 21:38:37 10° SSW 21:44:04 36° SE 21:49:57 10° ENE
NOSS 3-4 (C) 4.1 21:38:42 10° SSW 21:44:10 36° SE 21:50:03 10° ENE
NOSS 3-1 (A) 4.0 21:37:51 10° W 21:44:13 76° N 21:51:53 10° E
Cosmos 2315 Rocket 4.1 21:39:00 10° NNW 21:45:15 89° W 21:51:29 10° S
SL-16 R/B 4.2 21:40:17 10° ESE 21:45:35 31° NE 21:50:54 10° NNW
Cosmos 1461 3.3 21:46:15 10° WSW 21:50:37 79° NNW 21:55:12 10° ENE
Cosmos 1975 Rocket 4.3 21:47:40 10° SW 21:51:51 40° WNW 21:56:02 10° N
Cosmos 2084 Rocket 3.7 21:47:49 10° WNW 21:52:14 83° NNE 21:56:44 10° ESE
BREEZE-M DEB (TANK) 4.3 21:46:55 10° WSW 21:53:06 22° SSW 21:55:59 10° SE
Cosmos 2227 Rocket 2.4 21:47:30 10° NW 21:53:14 77° NE 21:58:56 10° SE
Cosmos 292 Rocket 3.9 21:50:43 10° SSW 21:55:35 88° ESE 22:00:30 10° NE
RESURS DK-1 4.0 21:54:35 10° SSE 21:57:36 20° ESE 22:00:38 10° ENE
Cosmos 1340 Rocket 3.7 21:54:14 10° NNW 21:58:03 40° W 22:01:53 10° SSW
Cosmos 2369 Rocket 2.2 21:52:56 10° SW 21:58:38 85° SE 22:04:18 10° NE
Aureole 3 3.5 21:56:41 10° NNW 22:00:05 46° W 22:03:03 10° S
Thor Agena Rocket 3.7 21:55:01 10° NNE 22:00:23 83° WNW 22:05:41 10° SSW
Cosmos 1908 3.4 21:59:26 10° NNW 22:03:14 62° W 22:07:00 10° S
ATLAS CENTAUR R/B 2.4 22:00:33 10° S 22:04:13 29° SE 22:07:44 10° ENE
Cosmos 1626 3.6 22:02:14 10° SSE 22:05:22 26° E 22:08:31 10° NNE
Cosmos 1953 3.6 22:02:37 10° NNW 22:06:14 32° W 22:09:48 10° SSW
NOSS 2-2 (C) 3.5 22:03:57 10° WSW 22:07:49 80° SSE 22:12:43 10° ENE
Cosmos 1025 Rocket 3.5 22:04:16 10° SSW 22:08:31 61° WNW 22:12:50 10° N
Cosmos 1656 Rocket 3.7 22:06:41 10° SSW 22:12:14 67° SE 22:17:45 10° NE
ATLAS 2AS CENTAUR R/B 3.3 22:04:46 10° SSW 22:12:31 55° SE 22:20:05 10° ENE
Nadezhda 1 Rocket 4.5 22:09:04 10° NNW 22:15:11 60° ENE 22:21:23 10° SSE
APEX 4.0 22:10:52 10° SW 22:16:51 81° SE 22:21:35 10° NE
Cosmos 2292 Rocket 2.8 22:13:58 10° SSW 22:17:25 82° WNW 22:20:27 10° NNE
KORONAS-FOTON 3.9 22:17:42 10° S 22:21:32 70° E 22:25:25 10° NNE
Cosmos 1356 Rocket 3.7 22:18:04 10° NNW 22:22:15 68° ENE 22:26:28 10° SSE
SL-4 R/B 2.9 22:21:04 10° SW 22:22:27 15° W 22:23:51 10° NW
Cosmos 1655 Rocket 4.3 22:16:30 10° SSW 22:22:43 68° WNW 22:29:02 10° NNE
Cosmos 2278 Rocket 4.2 22:18:14 10° W 22:23:27 35° NNW 22:28:39 10° NE
Uosat 12 SS-18 rocket 4.0 22:19:01 10° WNW 22:23:28 84° SSW 22:27:48 10° ESE
Cosmos 2228 3.5 22:19:58 10° NNW 22:24:05 49° W 22:28:10 10° S
Cosmos 1726 Rocket 3.9 22:20:37 10° NNW 22:24:52 57° W 22:29:07 10° S
ATLAS 5 CENTAUR R/B 2.3 22:23:29 10° SSW 22:25:27 19° SSE 22:27:03 10° E
Cosmos 1300 2.7 22:25:27 10° NNW 22:29:18 86° WSW 22:33:07 10° S
Cosmos 1892 Rocket 3.9 22:25:30 10° S 22:29:48 57° E 22:34:05 10° NNE
SL-4 R/B 3.6 22:26:22 10° SW 22:30:07 22° SSE 22:33:49 10° ESE
ERBS 3.0 22:27:58 10° W 22:30:58 31° SSW 22:33:58 10° SE
Cosmos 921 Rocket 4.0 22:32:18 10° S 22:36:15 36° ESE 22:40:17 10° NE
In-Cosmos 22 4.3 22:31:08 10° SSW 22:36:25 73° WNW 22:41:45 10° NNE
YAOGAN 11 4.5 22:32:15 10° S 22:36:30 53° WSW 22:40:45 10° NNW
Meteor 1-24 Rocket 4.0 22:33:35 10° S 22:38:51 57° E 22:44:18 10° NNE
Resurs 1-4 Rocket 4.3 22:35:49 10° NE 22:39:00 16° E 22:42:13 10° ESE
Meteor 2-1 Rocket 4.4 22:34:35 10° NNW 22:40:08 71° ENE 22:45:41 10° SSE
Cosmos 2266 Rocket 4.2 22:34:55 10° SSW 22:40:58 67° WNW 22:47:00 10° NNE
CZ-4C R/B 4.2 22:38:55 10° SE 22:41:06 12° ESE 22:43:24 10° E
SJ 16-02 1.4 22:36:56 10° NNW 22:41:24 83° WSW 22:45:51 10° SSE
Cosmos 1437 3.8 22:40:37 10° SSE 22:43:20 31° E 22:46:05 10° NNE
Helios 1B rocket 3.3 22:41:45 10° NNE 22:45:41 40° E 22:49:36 10° S
Cosmos 2263 4.5 22:42:59 10° SW 22:48:36 73° NW 22:54:16 10° NE
Cosmos 1674 3.1 22:48:59 10° SSW 22:52:44 60° WNW 22:56:32 10° N
CZ-2D R/B 4.2 22:49:17 10° NE 22:52:55 19° E 22:56:31 10° SE
Cosmos 2219 3.7 22:50:33 10° NW 22:55:57 45° WSW 23:01:18 10° S
STARLINK-60 4.5 22:56:01 10° SW 22:58:15 18° S 23:00:28 10° SE
USA 215 4.4 22:54:12 10° S 22:59:09 22° SW 23:04:09 10° W
Cosmos 2297 Rocket 2.6 22:54:51 10° NW 23:00:18 49° WSW 23:05:43 10° SSE
COSMOS 2455 2.9 22:54:50 10° SW 23:00:49 70° SE 23:06:51 10° NE
Cosmos 1745 Rocket 4.4 22:56:24 10° S 23:02:23 57° E 23:08:23 10° NNE
GEOS 3 Rocket 3.8 22:57:22 10° SE 23:02:33 59° SW 23:07:51 10° WNW
PSLV R/B 4.1 22:58:27 10° NNE 23:02:59 57° ESE 23:07:21 10° S
Cosmos 2263 Rocket 3.0 22:59:02 10° NW 23:04:37 57° NE 23:10:09 10° ESE
Lacrosse 4 Rocket 1.6 23:00:27 10° NW 23:04:47 59° SW 23:09:00 10° SSE
OPS 8737 4.2 23:02:15 10° WNW 23:05:07 83° NNE 23:08:24 10° ESE
Helios 1A 4.4 23:02:18 10° SSW 23:05:54 27° W 23:09:31 10° NW
Cosmos 2058 Rocket 3.9 23:03:07 10° NNW 23:07:15 39° W 23:11:23 10° SSW
Cosmos 1455 2.5 23:04:04 10° N 23:07:49 63° ENE 23:11:32 10° SSE
Meteor 2-10 Rocket 3.7 23:02:33 10° NNW 23:07:56 82° ENE 23:13:04 10° SSE
Cosmos 1937 Rocket 3.5 23:04:42 10° NW 23:09:57 78° WSW 23:15:14 10° SSE
Meteor 1-29 3.8 23:06:46 10° NNE 23:10:01 40° E 23:13:12 10° S
Cosmos 2082 3.8 23:04:41 10° NW 23:10:20 67° SW 23:15:56 10° SSE
Cosmos 1898 Rocket 3.7 23:05:22 10° NW 23:10:40 63° WSW 23:15:55 10° SSE
